STARLINK-34563, 64708

Orbit data source: Space-Track

STARLINK-34563, 64708 is a payload satellite owned by SpaceX/Seattle (US) in LEO that was launched on Sat, 28 Jun 2025 UTC via an FALCON 9 launch vehicle from the Air Force Western Test Range (AFWTR). Payload-class satellites include a variety of spacecraft equipped with specific instruments for various scientific and technological missions. These include communications satellites like Starlink; space stations such as the ISS; scientific satellites like the Hubble; Earth observation satellites from companies like Planet Labs, Umbra, and HawkEye 360; GPS; miniature CubeSats for education and research; and military/defense satellites.

Loading next visibility...
Identifier
64708, 2025-142N
Orbit
LEO
Country
Flag of USUS
Related business
Manufacturer
SpaceX/Seattle
Mission
Operational Commercial Communications
Bus & Motor
STARLINK V2MO, Unknown motor
Mass
575 kg wet, ~530 kg dry
Launch date (UTC)
2025-06-28 (11 months ago)
Launch vehicle
FALCON 9
Launch site
Air Force Western Test Range (AFWTR)
Object type
Payload
Rocket body
Debris
Shape & HBR
Box + 2 Pan, 17.7 m
Radar Cross Section
36.964 m², Large (>1 m²)

Expand to show TLE details & history
Last TLE update: 9 hours ago

TLE from 9 hours ago
0 STARLINK-34563
1 64708U 25142N   26145.38386819 -.00000136  00000-0 -35627-5 0  9993
2 64708  69.9999 121.2880 0003441 269.1526  90.9239 14.98321341 50949
Epoch: 2026-05-25T09:12Z
TLE epoch observation values (Epoch: 2026-05-25T09:12:46.211Z)
Latitude
-0.00001°
Longitude
100.12301°
Altitude
574.546 km
Speed
7.574 km/s
True Right ascension
08h 05m 09s
True Declination
0° 00' 00"
Sunlit
Object was in daylight at epoch
Visualization orbit readout
Latitude
Unknown
Longitude
Unknown
Altitude
Unknown
Speed
Unknown
Apparent Right ascension
Unknown
Apparent Declination
Unknown
Sunlit
N/A
Visualization observer readout
Local Sidereal Time
03:09:58
Azimuth
Unknown
Elevation
Unknown
Doppler factor
Unknown
Orbital elements
Apogee altitude
572.422 km
Perigee altitude
567.64 km
Semi-major axis
6,948.168 km
Eccentricity
0.00034
Inclination
69.9999°
RAAN
121.288°
Arg. of periapsis
269.1526°
True anomaly
90.96333°
Mean anomaly
90.9239°
Eccentric anomaly
90.94361°
Mean motion
3.74747 °/min
Orbital period
96.06 mins
BSTAR
-0.0000035627
Loading maneuver chart data...
Computing Atmospheric mass density...
Loading historical data...
Loading historical data...
Loading historical data...
Loading historical data...
Loading historical data...
Loading historical data...
Loading historical data...

Documentation

Showing up to 5 results
|